AXM481 WIII-WMKK

Flight info

Callsign AXM481
Flight time N/A
Altitude 38000
Route DOLTA A585 PKU/N0440F390 N633 SALAX SALAX3J
Aircraft A20N/M-SDE2E3FGHIRWXY/LB1

Departure

Time 2026-05-01 13:19
Airport Soekarno-Hatta International Airport (WIII)

Arrival

Time N/A
Airport Kuala Lumpur International Airport (WMKK)
Time Latitude Longitude Altitude Speed Heading
2026-05-01 13:00 -6.11947 106.65783 38 ft 0 kts 68°
2026-05-01 13:07 -6.11942 106.65723 39 ft 0 kts 159°
2026-05-01 13:08 -6.11949 106.65725 39 ft 2 kts 160°
2026-05-01 13:08 -6.11972 106.65714 40 ft 6 kts 264°
2026-05-01 13:08 -6.11917 106.65680 39 ft 12 kts 342°
2026-05-01 13:08 -6.11815 106.65644 38 ft 18 kts 337°
2026-05-01 13:09 -6.11721 106.65571 36 ft 15 kts 265°
2026-05-01 13:09 -6.11762 106.65455 36 ft 19 kts 248°
2026-05-01 13:09 -6.11817 106.65316 35 ft 23 kts 248°
2026-05-01 13:09 -6.11879 106.65159 36 ft 25 kts 248°
2026-05-01 13:10 -6.11946 106.64991 37 ft 26 kts 248°
2026-05-01 13:10 -6.12015 106.64816 35 ft 26 kts 248°
2026-05-01 13:10 -6.12080 106.64651 33 ft 24 kts 249°
2026-05-01 13:10 -6.12137 106.64507 34 ft 15 kts 248°
2026-05-01 13:11 -6.12214 106.64447 35 ft 16 kts 163°
2026-05-01 13:11 -6.12327 106.64491 35 ft 18 kts 159°
2026-05-01 13:11 -6.12448 106.64538 37 ft 18 kts 158°
2026-05-01 13:11 -6.12568 106.64588 39 ft 18 kts 157°
2026-05-01 13:12 -6.12696 106.64641 41 ft 21 kts 157°
2026-05-01 13:12 -6.12849 106.64703 42 ft 24 kts 158°
2026-05-01 13:12 -6.13015 106.64769 45 ft 26 kts 158°
2026-05-01 13:12 -6.13182 106.64837 45 ft 25 kts 158°
2026-05-01 13:13 -6.13337 106.64898 47 ft 22 kts 158°
2026-05-01 13:13 -6.13483 106.64954 46 ft 21 kts 159°
2026-05-01 13:13 -6.13621 106.65007 44 ft 20 kts 156°
2026-05-01 13:13 -6.13657 106.65116 40 ft 20 kts 68°
2026-05-01 13:14 -6.13598 106.65268 39 ft 25 kts 68°
2026-05-01 13:14 -6.13526 106.65447 41 ft 29 kts 68°
2026-05-01 13:14 -6.13453 106.65632 41 ft 27 kts 69°
2026-05-01 13:14 -6.13386 106.65808 41 ft 26 kts 68°
2026-05-01 13:15 -6.13317 106.65977 39 ft 26 kts 69°
2026-05-01 13:15 -6.13251 106.66144 37 ft 25 kts 68°
2026-05-01 13:15 -6.13186 106.66312 35 ft 25 kts 69°
2026-05-01 13:15 -6.13121 106.66477 32 ft 25 kts 69°
2026-05-01 13:16 -6.13068 106.66617 32 ft 16 kts 78°
2026-05-01 13:16 -6.13118 106.66698 31 ft 12 kts 96°
2026-05-01 13:16 -6.13091 106.66795 29 ft 16 kts 67°
2026-05-01 13:17 -6.12940 106.67181 29 ft 15 kts 81°
2026-05-01 13:17 -6.12971 106.67244 30 ft 7 kts 164°
2026-05-01 13:18 -6.13088 106.67265 30 ft 10 kts 205°
2026-05-01 13:18 -6.13133 106.67181 29 ft 23 kts 249°
2026-05-01 13:18 -6.13293 106.66780 31 ft 97 kts 249°
2026-05-01 13:18 -6.13621 106.65952 39 ft 156 kts 248°
2026-05-01 13:19 -6.14049 106.64878 481 ft 167 kts 247°
2026-05-01 13:19 -6.14497 106.63784 954 ft 177 kts 248°
2026-05-01 13:19 -6.15509 106.61289 1743 ft 211 kts 249°